FW1657 Weather Reports


Display with metric or nautical units.
time (UTC)temp
F
wind
direction
speed
MPH
gust
MPH
rain 1hr
in
rain 24hr
in
rain mn
in
humidity
%
barometer
mb
20260508050035 45 239 2.0 4.0 0.00 0.00 0.00 89 1016.9
20260508044534 46 239 1.0 4.0 0.00 0.00 0.00 89 1016.8
20260508043031 46 230 3.0 4.0 0.00 0.00 0.00 88 1016.7
20260508041528 46 229 0.0 3.0 0.00 0.00 0.00 88 1016.7
20260508040027 47 229 0.0 0.0 0.00 0.00 0.00 88 1016.6
20260508034534 47 229 0.0 3.0 0.00 0.00 0.00 89 1016.6
20260508033026 47 229 0.0 0.0 0.00 0.00 0.00 88 1016.5
20260508031522 47 227 0.0 0.0 0.00 0.00 0.00 89 1016.6
20260508030021 47 227 0.0 0.0 0.00 0.00 0.00 89 1016.6
20260508024519 47 227 2.0 4.0 0.00 0.00 0.00 89 1016.6
20260508023018 47 227 2.0 4.0 0.00 0.00 0.00 89 1016.6
20260508021517 47 210 2.0 4.0 0.00 0.00 0.00 89 1016.7
20260508020016 47 210 0.0 4.0 0.00 0.00 0.00 89 1016.6
20260508014515 47 191 2.0 4.0 0.00 0.00 0.00 89 1016.8
20260508013012 47 186 2.0 3.0 0.00 0.00 0.00 89 1016.7
20260508011512 48 186 0.0 1.0 0.00 0.00 0.00 89 1016.7
20260508010010 48 186 0.0 0.0 0.00 0.00 0.00 89 1016.8
20260508004508 48 186 0.0 3.0 0.00 0.00 0.00 88 1016.8
20260508003008 48 186 0.0 1.0 0.00 0.00 0.00 88 1016.7
20260508001509 48 186 1.0 3.0 0.00 0.00 0.00 88 1016.8
20260508000008 48 186 2.0 4.0 0.00 0.00 0.00 87 1016.9
20260507234513 49 186 0.0 2.0 0.00 0.00 0.00 87 1016.9
20260507233003 49 186 1.0 2.0 0.00 0.00 0.00 87 1016.9
20260507231502 49 186 0.0 3.0 0.00 0.00 0.00 86 1017.0
20260507230001 49 186 2.0 3.0 0.00 0.00 0.00 86 1016.9
20260507224603 49 186 1.0 3.0 0.00 0.00 0.00 86 1017.0
20260507223112 49 186 1.0 3.0 0.00 0.00 0.00 86 1016.9
20260507221557 49 186 1.0 3.0 0.00 0.00 0.00 86 1017.2
20260507220055 49 186 2.0 3.0 0.00 0.00 0.00 86 1017.1
20260507214559 49 186 1.0 3.0 0.00 0.00 0.00 86 1017.0
20260507213055 50 186 0.0 0.0 0.00 0.00 0.00 86 1017.1
20260507211554 50 186 0.0 2.0 0.00 0.00 0.00 86 1017.1
20260507210053 50 186 0.0 1.0 0.00 0.00 0.00 85 1017.0
20260507204552 50 186 1.0 3.0 0.00 0.00 0.00 85 1017.0
20260507203100 50 186 1.0 2.0 0.00 0.00 0.00 84 1017.0
20260507201550 50 186 2.0 3.0 0.00 0.00 0.00 84 1016.8
20260507200052 51 186 0.0 0.0 0.00 0.00 0.00 85 1016.7
20260507194548 51 186 0.0 0.0 0.00 0.00 0.00 84 1016.7
20260507193053 51 186 0.0 0.0 0.00 0.00 0.00 82 1016.6
20260507191546 52 186 0.0 2.0 0.00 0.00 0.00 81 1016.4
20260507190046 52 186 0.0 3.0 0.00 0.00 0.00 80 1016.4
20260507184545 52 186 2.0 4.0 0.00 0.00 0.00 79 1016.5
20260507183045 53 186 2.0 4.0 0.00 0.00 0.00 78 1016.5
20260507181544 53 186 1.0 5.0 0.00 0.00 0.00 78 1016.4
20260507180045 53 153 3.0 5.0 0.00 0.00 0.00 76 1016.4
20260507174550 54 145 3.0 4.0 0.00 0.00 0.00 75 1016.3
20260507173048 54 129 1.0 3.0 0.00 0.00 0.00 74 1016.3
20260507171603 54 125 1.0 3.0 0.00 0.00 0.00 73 1016.2
20260507170042 54 125 1.0 4.0 0.00 0.00 0.00 70 1016.1
20260507164558 55 104 1.0 3.0 0.00 0.00 0.00 73 1016.0
20260507163040 55 102 0.0 1.0 0.00 0.00 0.00 73 1016.1
20260507161544 54 102 0.0 0.0 0.00 0.00 0.00 73 1016.1
20260507160042 54 102 1.0 3.0 0.00 0.00 0.00 72 1016.1
20260507154539 55 102 0.0 2.0 0.00 0.00 0.00 71 1016.1
20260507153044 55 102 2.0 4.0 0.00 0.00 0.00 73 1016.1
20260507151541 55 102 1.0 4.0 0.00 0.00 0.00 72 1016.1
20260507150037 55 102 0.0 3.0 0.00 0.00 0.00 71 1016.2
20260507144536 55 102 1.0 4.0 0.00 0.00 0.00 69 1016.3
20260507143038 55 100 3.0 4.0 0.00 0.00 0.00 70 1016.1
20260507141533 55 98 2.0 4.0 0.00 0.00 0.00 71 1016.1
20260507140032 55 93 2.0 4.0 0.00 0.00 0.00 72 1016.2
20260507134542 55 83 3.0 4.0 0.00 0.00 0.00 71 1016.3
20260507133031 55 33 0.0 2.0 0.00 0.00 0.00 70 1016.2
20260507131536 55 13 0.0 0.0 0.00 0.00 0.00 70 1016.1
20260507130032 55 13 0.0 0.0 0.00 0.00 0.00 73 1016.3
20260507124532 55 13 0.0 4.0 0.00 0.00 0.00 69 1016.3
20260507123029 55 295 0.0 2.0 0.00 0.00 0.00 70 1016.2
20260507121527 55 346 1.0 5.0 0.00 0.00 0.00 72 1016.3
20260507120025 55 260 2.0 7.0 0.00 0.00 0.00 72 1016.4
20260507114527 54 262 1.0 5.0 0.00 0.00 0.00 74 1016.4
20260507113020 54 186 1.0 4.0 0.00 0.00 0.00 74 1016.5
20260507111522 54 287 3.0 6.0 0.00 0.00 0.00 75 1016.5
20260507110018 53 196 2.0 7.0 0.00 0.00 0.00 76 1016.4
20260507104516 53 279 3.0 7.0 0.00 0.00 0.00 76 1016.4
20260507103016 53 253 2.0 7.0 0.00 0.00 0.00 75 1016.4
20260507101519 53 316 5.0 9.0 0.00 0.00 0.00 76 1016.3
20260507100013 53 314 3.0 6.0 0.00 0.00 0.00 76 1016.2
20260507094512 54 244 0.0 8.0 0.00 0.00 0.00 74 1016.0
20260507093009 53 149 2.0 8.0 0.00 0.00 0.00 76 1015.9
20260507091504 51 261 4.0 9.0 0.00 0.00 0.00 80 1015.8
20260507090006 50 217 3.0 6.0 0.00 0.01 0.00 82 1015.8
20260507084502 50 181 4.0 10.0 0.00 0.01 0.00 82 1015.4
20260507083003 50 200 3.0 8.0 0.00 0.01 0.00 84 1015.5
20260507081604 50 153 3.0 6.0 0.00 0.01 0.00 83 1015.3
20260507080058 50 200 5.0 10.0 0.00 0.01 0.00 83 1015.1
20260507074559 51 196 6.0 12.0 0.00 0.03 0.00 82 1015.1
20260507073053 49 167 4.0 8.0 0.00 0.03 0.00 87 1014.8
20260507071556 48 201 4.0 8.0 0.00 0.03 0.00 87 1014.9
20260507070100 49 171 4.0 8.0 0.00 0.03 0.00 89 1014.8
20260507064547 47 175 4.0 9.0 0.00 0.04 0.00 91 1014.6
20260507063043 46 159 4.0 9.0 0.00 0.04 0.00 94 1014.5
20260507061542 45 209 3.0 5.0 0.00 0.04 0.00 94 1014.6
20260507060053 44 104 0.0 2.0 0.00 0.04 0.00 94 1014.5
20260507054541 43 104 0.0 1.0 0.00 0.05 0.00 94 1014.2
20260507053045 43 104 1.0 4.0 0.00 0.05 0.00 94 1014.1
20260507051541 43 102 0.0 3.0 0.00 0.05 0.00 94 1013.9